{"data":{"norad_id":68665,"intl_designator":"2026-077D","name":"STARLINK-37171","alt_names":[],"object_type":"PAYLOAD","status":"ACTIVE","operator":null,"country":"US","launch_date":"2026-04-11","launch_site_code":"AFWTR","launch_vehicle":null,"mission":null,"orbit_class":"UNKNOWN","rcs_meters":null,"size_class":null,"mass_kg":null,"dimensions":null,"purposes":["comms"],"wikipedia_slug":null,"has_3d_model":false,"image_url":null,"decayed_at":null,"tle_current":{"epoch":"2026-09-20T01:40:24.976128Z","epoch_age_seconds":81123,"freshness":"FRESH","line1":"1 68665U 26077D   26263.06973352  .00010166  00000+0  31679-3 0  9999","line2":"2 68665  97.2869 132.9150 0002312  88.1308 272.0199 15.33445072 24944","mean_motion":15.33445072,"eccentricity":0.0002312,"inclination_deg":97.2869,"raan_deg":132.915,"arg_perigee_deg":88.1308,"mean_anomaly_deg":272.0199,"bstar":0.00031679,"rev_number":2494,"period_min":93.906200247647,"perigee_km":463.96070144998,"apogee_km":467.12521906361,"semimajor_km":6843.6799602568,"source":"CELESTRAK","updated_at":"2026-09-20T09:00:43.950019Z"}}}